This demonstration page uses our WeatherBlox Daily Observations layout. Learn more.

Left ArrowRight Arrow

44.8408, -93.29828

Hourly Observations for July 25, 2021

Temp ( °F °C ) Dew Point ( °F °C ) Humidity (%) Winds ( mph kmh ) Pressure ( in mb ) Visibility ( mi km ) Precip ( " mm )
12:53 am 00:53 Clear 74 23.3 53 11.7 48 48 Calm 29.92 1013 9 14 0.00 0.00
1:53 am 01:53 Clear 72 22.2 54 12.2 53 53 Calm 29.93 1014 9 14 0.00 0.00
2:53 am 02:53 Clear 70 21.1 55 12.8 59 59 Calm 29.94 1014 9 14 0.00 0.00
3:53 am 03:53 Clear 70 21.1 55 12.8 59 59 SSW 5 7 29.95 1014 9 14 0.00 0.00
4:53 am 04:53 Clear 69 20.6 56 13.3 63 63 SW 3 6 29.95 1014 9 14 0.00 0.00
5:53 am 05:53 Sunny 66 18.9 57 13.9 73 73 SW 5 7 29.96 1015 8 13 0.00 0.00
6:53 am 06:53 Sunny 67 19.4 58 14.4 73 73 SW 3 6 29.98 1015 8 13 0.00 0.00
7:53 am 07:53 Sunny 72 22.2 58 14.4 61 61 W 5 7 29.98 1015 8 13 0.00 0.00
8:53 am 08:53 Sunny 77 25 57 13.9 50 50 WNW 5 7 29.99 1016 9 14 0.00 0.00
9:53 am 09:53 Sunny 83 28.3 55 12.8 38 38 W 6 9 29.98 1015 10 16 0.00 0.00
10:53 am 10:53 Sunny 87 30.6 50 10 28 28 NNW 10 17 29.99 1016 10 16 0.00 0.00
11:53 am 11:53 Sunny 88 31.1 47 8.3 24 24 W 13 20 30.00 1016 10 16 0.00 0.00
12:53 pm 12:53 Sunny 90 32.2 46 7.8 22 22 WNW 13 20 29.98 1015 10 16 0.00 0.00
1:53 pm 13:53 Sunny 91 32.8 47 8.3 22 22 NW 10 17 29.98 1015 10 16 0.00 0.00
2:53 pm 14:53 Sunny 91 32.8 49 9.4 24 24 W 14 22 29.97 1015 10 16 0.00 0.00
3:53 pm 15:53 Sunny 92 33.3 49 9.4 23 23 W 14 22 29.95 1014 10 16 0.00 0.00
4:53 pm 16:53 Sunny 92 33.3 50 10 24 24 WNW 12 19 29.93 1014 10 16 0.00 0.00
5:53 pm 17:53 Sunny 91 32.8 50 10 25 25 WNW 10 17 29.93 1014 10 16 0.00 0.00
6:53 pm 18:53 Sunny 89 31.7 52 11.1 28 28 W 14 22 29.92 1013 10 16 0.00 0.00
7:53 pm 19:53 Mostly Sunny 87 30.6 53 11.7 31 31 W 8 13 29.92 1013 9 14 0.00 0.00
8:53 pm 20:53 Mostly Clear 85 29.4 55 12.8 36 36 WSW 5 7 29.92 1013 9 14 0.00 0.00
9:53 pm 21:53 Mostly Clear 83 28.3 55 12.8 38 38 SW 6 9 29.96 1014 10 16 0.00 0.00
10:53 pm 22:53 Mostly Clear 80 26.7 56 13.3 44 44 SW 7 11 29.96 1015 9 14 0.00 0.00
11:53 pm 23:53 Mostly Clear 79 26.1 58 14.4 49 49 SW 3 6 29.96 1014 9 14 0.00 0.00

Powered by AerisWeather